Location: Sungai Bunut
(2.6333°N, 113.7333°E)
Time: 11:23:15
(UTC+00:00)

Transit 2A Rocket - Pass Details

Date: 11 December 2023
Orbit: 590 x 905 km, 66.7° (Epoch: 01 March)

Event Time Altitude Azimuth Distance (km) Brightness Sun altitude
Rises 22:56:04 0° 320° (NW) 3,024 7.5 7.6°
Reaches altitude 10° 22:58:33 10° 309° (NW) 2,162 6.8 8.2°
Maximum altitude 23:02:48 29° 249° (WSW) 1,336 6.0 9.1°
Drops below altitude 10° 23:07:25 10° 190° (S) 2,351 7.8 10.2°
Sets 23:10:14 0° 179° (S) 3,338 8.7 10.8°
